Weather History for Lac la Martre, NT

Change the Weather History Date:

Thursday, October 11, 2012

  Actual Average Record
Temperature  
Mean Temperature 32 °F -  
Max Temperature 53 °F - - ()
Min Temperature 12 °F - - ()
Degree Days  
Heating Degree Days 32    
Moisture  
Dew Point 23 °F    
Average Humidity 81    
Maximum Humidity 93    
Minimum Humidity 63    
Precipitation  
Precipitation 0.00 in - - ()
Sea Level Pressure  
Sea Level Pressure 30.14 in    
Wind  
Wind Speed 9 mph ()    
Max Wind Speed 14 mph    
Max Gust Speed 23 mph    
T = Trace of Precipitation, MM = Missing Value Source: Averaged Metar Reports

Daily Weather History Graph

Daily Weather History Graph

Search for Another Location

Airport:

Trip Planner

Search our weather history database for the weather conditions in past years. The results will help you decide how hot, cold, wet, or windy it might be!

Date:

Astronomy

Oct. 11, 2012 Rise Set
Actual Time 8:26 AM MDT 6:43 PM MDT
Civil Twilight 7:40 AM MDT 7:29 PM MDT
Nautical Twilight 6:46 AM MDT 8:22 PM MDT
Astronomical Twilight 5:51 AM MDT 9:17 PM MDT
Moon 2:57 AM MDT (10/11) 5:21 PM MDT (10/11)
Length of Visible Light 11h 49m
Length of Day
10h 16m
Waning Crescent, 18% of the Moon is Illuminated
Oct 11
Waning Crescent
Oct 15
New
Oct 21
First Quarter
Oct 29
Full
Nov 6
Last Quarter

Hourly Weather History & Observations

Time (MDT) Temp. Windchill Dew Point Humidity Pressure Visibility Wind Dir Wind Speed Gust Speed Precip Events Conditions
12:00 AM 28.8 °F 20.2 °F 22.6 °F 78% 30.29 in - WSW 9.2 mph - N/A   Unknown
1:00 AM 30.4 °F 20.5 °F 23.7 °F 76% 30.30 in - West 12.7 mph 20.7 mph N/A   Unknown
2:00 AM 26.2 °F 16.4 °F 22.5 °F 86% 30.29 in - WSW 10.4 mph - N/A   Unknown
3:00 AM 16.3 °F 3.4 °F 13.8 °F 90% 30.26 in - WSW 11.5 mph - N/A   Unknown
4:00 AM 27.9 °F 17.3 °F 25.0 °F 89% 30.24 in - WSW 12.7 mph - N/A   Unknown
5:00 AM 30.6 °F 20.2 °F 23.0 °F 74% 30.22 in - West 13.8 mph 21.9 mph N/A   Unknown
6:00 AM 31 °F - 25 °F 72% 30.21 in - West 12.7 mph - -  
6:00 AM 30.9 °F 21.2 °F 25.3 °F 80% 30.21 in - West 12.7 mph - N/A   Unknown
7:00 AM 30.2 °F 20.2 °F 24.6 °F 80% 30.19 in - West 12.7 mph - N/A   Unknown
8:00 AM 29.8 °F 19.8 °F 24.8 °F 81% 30.18 in - West 12.7 mph 20.7 mph N/A   Unknown
9:00 AM 29.1 °F 18.4 °F 23.7 °F 80% 30.16 in - WNW 13.8 mph 23.0 mph N/A   Unknown
11:00 AM 30.4 °F 21.5 °F 26.8 °F 86% 30.14 in - West 10.4 mph - N/A   Unknown
12:00 PM 30 °F - 24 °F 70% 30.13 in - NNW 9.2 mph - -  
12:00 PM 30.4 °F 22.2 °F 24.1 °F 77% 30.13 in - NNW 9.2 mph - N/A   Unknown
2:00 PM 18.5 °F 7.5 °F 7.9 °F 63% 30.12 in - North 9.2 mph - N/A   Unknown
3:00 PM 30.2 °F 25.4 °F 21.9 °F 71% 30.09 in - NNW 4.6 mph - N/A   Unknown
4:00 PM 27.9 °F 24.0 °F 20.5 °F 74% 30.07 in - WNW 3.5 mph - N/A   Unknown
5:00 PM 28.2 °F 22.0 °F 26.4 °F 93% 30.06 in - SW 5.8 mph - N/A   Unknown
6:00 PM 13 °F - 10 °F 80% 30.06 in - SW 8.1 mph - -  
6:00 PM 12.9 °F 1.6 °F 9.7 °F 87% 30.06 in - SW 8.1 mph - N/A   Unknown
7:00 PM 53.1 °F - 50.4 °F 91% 30.01 in - WSW 6.9 mph - N/A   Unknown
8:00 PM 24.4 °F 18.6 °F 20.5 °F 85% 30.03 in - SW 4.6 mph - N/A   Unknown
9:00 PM 24.3 °F - 21.6 °F 89% 30.01 in - SSE 1.2 mph - N/A   Unknown
10:00 PM 24.3 °F 19.9 °F 22.5 °F 93% 30.00 in - South 3.5 mph - N/A   Unknown
11:00 PM - - - N/A% 30.01 in - SW 3.5 mph - N/A   Unknown